Clarksburg, WV

9:56 PM EDT on March 28, 2017 (GMT -0400)
Benedum

Weather History for KCKB - February, 2014

Change the Weather History Date:

Saturday, February 8, 2014

  Actual Average Record
Temperature  
Mean Temperature 20 °F 33 °F  
Max Temperature 28 °F 42 °F 64 °F (2001)
Min Temperature 12 °F 24 °F -8 °F (1967)
Degree Days  
Heating Degree Days 45 32  
Month to date heating degree days 262  
Since 1 July heating degree days 3354  
Cooling Degree Days 0 0  
Month to date cooling degree days 0  
Year to date cooling degree days 0  
Moisture  
Dew Point 15 °F    
Average Humidity 76    
Maximum Humidity 88    
Minimum Humidity 53    
Precipitation  
Precipitation 0.00 in 0.11 in 1.25 in (1937)
Month to date precipitation 0.92  
Year to date precipitation 4.37  
Sea Level Pressure  
Sea Level Pressure 30.25 in    
Wind  
Wind Speed 2 mph (NNE)    
Max Wind Speed 7 mph    
Max Gust Speed -    
Visibility 10 miles    
Events Snow    
T = Trace of Precipitation, MM = Missing Value Source: NWS Daily Summary

Daily Weather History Graph

Daily Weather History Graph

Search for Another Location

Airport or City:

Trip Planner

Search our weather history database for the weather conditions in past years. The results will help you decide how hot, cold, wet, or windy it might be!

Date:

Astronomy

Feb. 08, 2014 Rise Set
Actual Time 7:20 AM EST 5:49 PM EST
Civil Twilight 6:53 AM EST 6:17 PM EST
Nautical Twilight 6:21 AM EST 6:49 PM EST
Astronomical Twilight 5:50 AM EST 7:20 PM EST
Moon 12:43 PM EST (2/8) 2:31 AM EST (2/8)
Length of Visible Light 11h 24m
Length of Day
10h 28m
Waxing Gibbous, 68% of the Moon is Illuminated
Feb 8
Waxing Gibbous
Feb 14
Full
Feb 22
Last Quarter
Mar 1
New
Mar 8
First Quarter

Hourly Weather History & Observations

Time (EST) Temp. Windchill Dew Point Humidity Pressure Visibility Wind Dir Wind Speed Gust Speed Precip Events Conditions
12:53 AM 15.1 °F - 12.0 °F 88% 30.36 in 8.0 mi Calm Calm - N/A   Clear
1:53 AM 14.0 °F - 10.0 °F 84% 30.33 in 9.0 mi Calm Calm - N/A   Clear
2:53 AM 14.0 °F - 9.0 °F 80% 30.33 in 10.0 mi Calm Calm - N/A   Clear
3:53 AM 12.9 °F - 9.0 °F 84% 30.33 in 9.0 mi Calm Calm - N/A   Clear
4:53 AM 12.9 °F 6.9 °F 9.0 °F 84% 30.32 in 9.0 mi North 3.5 mph - N/A   Clear
5:53 AM 12.9 °F 5.2 °F 10.0 °F 88% 30.33 in 8.0 mi North 4.6 mph - N/A   Clear
6:53 AM 12.9 °F 3.8 °F 9.0 °F 84% 30.32 in 9.0 mi NNE 5.8 mph - N/A   Scattered Clouds
7:53 AM 12.9 °F 6.9 °F 9.0 °F 84% 30.33 in 8.0 mi NNE 3.5 mph - N/A   Overcast
8:53 AM 15.1 °F 9.4 °F 10.0 °F 80% 30.33 in 9.0 mi North 3.5 mph - N/A   Overcast
9:53 AM 18.0 °F - 10.9 °F 74% 30.31 in 10.0 mi Calm Calm - N/A   Overcast
10:53 AM 21.9 °F - 10.0 °F 60% 30.30 in 10.0 mi Calm Calm - N/A   Mostly Cloudy
11:53 AM 25.0 °F - 10.0 °F 53% 30.28 in 10.0 mi Calm Calm - N/A   Overcast
12:53 PM 26.1 °F - 10.9 °F 53% 30.25 in 10.0 mi Calm Calm - N/A   Overcast
1:53 PM 27.0 °F 19.5 °F 14.0 °F 58% 30.22 in 10.0 mi NNW 6.9 mph - N/A   Overcast
2:53 PM 28.0 °F 21.7 °F 15.1 °F 58% 30.22 in 10.0 mi NW 5.8 mph - N/A   Overcast
3:53 PM 27.0 °F 20.5 °F 17.1 °F 66% 30.21 in 6.0 mi NNW 5.8 mph - 0.00 in Snow Light Snow
4:53 PM 26.1 °F - 19.0 °F 75% 30.21 in 10.0 mi Calm Calm - 0.00 in   Overcast
5:37 PM 25.0 °F 20.7 °F 19.0 °F 78% 30.17 in 10.0 mi ENE 3.5 mph - N/A   Mostly Cloudy
5:53 PM 24.1 °F - 19.0 °F 81% 30.22 in 10.0 mi Calm Calm - N/A   Mostly Cloudy
6:00 PM 24.1 °F 18.2 °F 19.0 °F 81% 30.18 in 10.0 mi NNE 4.6 mph - N/A   Scattered Clouds
6:53 PM 23.0 °F 18.4 °F 18.0 °F 81% 30.22 in 10.0 mi East 3.5 mph - N/A   Partly Cloudy
7:53 PM 24.1 °F - 19.0 °F 81% 30.21 in 10.0 mi Calm Calm - N/A   Overcast
8:53 PM 25.0 °F - 19.0 °F 78% 30.19 in 10.0 mi Calm Calm - N/A   Overcast
9:53 PM 25.0 °F - 19.0 °F 78% 30.19 in 10.0 mi Calm Calm - N/A   Overcast
10:38 PM 25.0 °F - 19.0 °F 78% 30.14 in 10.0 mi Calm Calm - N/A   Overcast
10:45 PM 25.0 °F - 19.0 °F 78% 30.14 in 10.0 mi Calm Calm - N/A   Overcast
10:53 PM 25.0 °F - 19.0 °F 78% 30.18 in 10.0 mi Calm Calm - N/A   Overcast
11:32 PM 25.0 °F - 19.9 °F 81% 30.14 in 10.0 mi Calm Calm - N/A   Overcast
11:53 PM 25.0 °F 20.7 °F 19.0 °F 78% 30.17 in 10.0 mi North 3.5 mph - N/A   Overcast